FW2270 Weather Reports


Display with metric or nautical units.
time (UTC)temp
F
wind
direction
speed
MPH
gust
MPH
rain 1hr
in
rain 24hr
in
rain mn
in
humidity
%
barometer
mb
20260509214416 65 284 4.0 10.0 0.00 0.00 0.00 81 1016.1
20260509213454 65 266 3.0 12.0 0.00 0.00 0.00 82 1016.2
20260509212426 65 319 6.0 12.0 0.00 0.00 0.00 79 1016.2
20260509211420 65 263 4.0 13.0 0.00 0.00 0.00 82 1016.2
20260509210434 66 270 5.0 12.0 0.00 0.00 0.00 80 1016.2
20260509205429 65 279 6.0 13.0 0.00 0.00 0.00 78 1016.4
20260509204424 66 272 6.0 10.0 0.00 0.00 0.00 78 1016.3
20260509203419 65 288 5.0 14.0 0.00 0.00 0.00 80 1016.4
20260509202438 65 315 7.0 11.0 0.00 0.00 0.00 80 1016.4
20260509201451 66 275 7.0 13.0 0.00 0.00 0.00 80 1016.4
20260509200424 66 330 3.0 10.0 0.00 0.00 0.00 80 1016.6
20260509195417 66 277 5.0 11.0 0.00 0.00 0.00 78 1016.6
20260509194416 67 312 4.0 10.0 0.00 0.00 0.00 78 1016.6
20260509193431 68 287 4.0 9.0 0.00 0.00 0.00 78 1016.5
20260509192425 68 251 4.0 11.0 0.00 0.00 0.00 76 1016.5
20260509191419 69 265 4.0 10.0 0.00 0.00 0.00 77 1016.5
20260509190417 70 253 3.0 6.0 0.00 0.00 0.00 75 1016.5
20260509185429 70 253 1.0 5.0 0.00 0.00 0.00 78 1016.7
20260509184421 69 282 3.0 7.0 0.00 0.00 0.00 74 1016.9
20260509183513 69 232 2.0 6.0 0.00 0.00 0.00 73 1016.9
20260509111427 48 270 0.0 0.0 0.00 0.00 0.00 97 1016.5
20260509110442 47 270 0.0 0.0 0.00 0.00 0.00 96 1016.5
20260509105433 48 270 0.0 0.0 0.00 0.00 0.00 96 1016.4
20260509104431 48 270 0.0 0.0 0.00 0.00 0.00 96 1016.4
20260509103443 48 270 0.0 0.0 0.00 0.00 0.00 96 1016.4
20260509102416 48 270 0.0 0.0 0.00 0.00 0.00 96 1016.5
20260509101430 48 270 0.0 0.0 0.00 0.00 0.00 96 1016.5
20260509100429 48 270 0.0 0.0 0.00 0.00 0.00 96 1016.6
20260509095422 48 270 0.0 1.0 0.00 0.00 0.00 96 1016.5
20260509094417 49 270 0.0 2.0 0.00 0.00 0.00 96 1016.4
20260509093415 48 270 0.0 1.0 0.00 0.00 0.00 96 1016.5
20260509092429 48 270 0.0 2.0 0.00 0.00 0.00 96 1016.5
20260509091423 48 277 0.0 4.0 0.00 0.00 0.00 96 1016.6
20260509090438 48 276 0.0 1.0 0.00 0.00 0.00 96 1016.7
20260509085433 48 276 0.0 1.0 0.00 0.00 0.00 96 1016.7
20260509084426 48 276 0.0 1.0 0.00 0.00 0.00 95 1016.9
20260509083421 48 276 0.0 1.0 0.00 0.00 0.00 95 1016.9
20260509082454 49 276 0.0 1.0 0.00 0.00 0.00 95 1016.8
20260509081452 49 276 0.0 2.0 0.00 0.00 0.00 95 1016.8
20260509080424 49 276 0.0 1.0 0.00 0.00 0.00 95 1016.9
20260509075436 49 276 0.0 2.0 0.00 0.00 0.00 95 1016.9
20260509074430 50 276 2.0 3.0 0.00 0.00 0.00 95 1016.9
20260509073429 50 278 0.0 4.0 0.00 0.00 0.00 95 1017.0
20260509072424 50 274 1.0 4.0 0.00 0.00 0.00 95 1017.0
20260509071438 50 282 2.0 4.0 0.00 0.00 0.00 95 1017.1
20260509070415 50 267 3.0 4.0 0.00 0.00 0.00 95 1017.1
20260509065428 50 270 3.0 5.0 0.00 0.00 0.00 94 1017.3
20260509064442 50 265 0.0 4.0 0.00 0.00 0.00 94 1017.2
20260509063415 50 265 3.0 5.0 0.00 0.00 0.00 94 1017.3
20260509062433 50 260 3.0 6.0 0.00 0.00 0.00 94 1017.3
20260509061427 50 270 2.0 6.0 0.00 0.00 0.00 94 1017.3
20260509060419 51 265 4.0 6.0 0.00 0.00 0.00 94 1017.4
20260509055431 51 281 4.0 7.0 0.00 0.00 0.00 94 1017.4
20260509054430 51 266 3.0 6.0 0.00 0.00 0.00 94 1017.4
20260509053424 51 270 3.0 5.0 0.00 0.00 0.00 94 1017.5
20260509052418 51 260 3.0 5.0 0.00 0.00 0.00 94 1017.6
20260509051433 51 265 3.0 5.0 0.00 0.00 0.00 95 1017.4
20260509045450 51 270 0.0 4.0 0.00 0.00 0.00 94 1017.4
20260509044421 51 273 0.0 3.0 0.00 0.00 0.00 94 1017.2
20260509043420 51 286 1.0 2.0 0.00 0.00 0.00 94 1017.2
20260509042433 51 286 2.0 4.0 0.00 0.00 0.00 94 1017.2
20260509041428 51 265 2.0 5.0 0.00 0.00 0.00 94 1017.1
20260509040442 52 270 0.0 4.0 0.00 0.00 0.00 93 1017.0
20260509035417 52 273 3.0 4.0 0.00 0.00 0.00 93 1016.9
20260509034431 52 274 3.0 5.0 0.00 0.00 0.00 93 1016.9
20260509033446 53 268 1.0 5.0 0.00 0.00 0.00 93 1016.9
20260509032419 53 267 3.0 6.0 0.00 0.00 0.00 92 1016.8
20260509031418 53 274 3.0 6.0 0.00 0.00 0.00 91 1016.7
20260509030432 54 298 1.0 4.0 0.00 0.00 0.00 90 1016.7
20260509025423 55 278 1.0 4.0 0.00 0.00 0.00 89 1016.7
20260509024419 57 289 0.0 5.0 0.00 0.00 0.00 87 1016.7
20260509023432 57 271 2.0 5.0 0.00 0.00 0.00 86 1016.8
20260509022445 58 256 3.0 6.0 0.00 0.00 0.00 85 1016.7
20260509021416 58 295 5.0 10.0 0.00 0.00 0.00 84 1016.7
20260509020428 58 284 5.0 10.0 0.00 0.00 0.00 84 1016.6
20260509015426 59 263 4.0 10.0 0.00 0.00 0.00 84 1016.7
20260509014421 60 292 1.0 8.0 0.00 0.00 0.00 84 1016.8
20260509013415 59 279 1.0 9.0 0.00 0.00 0.00 84 1016.8
20260509012455 59 266 5.0 9.0 0.00 0.00 0.00 83 1016.9
20260509011428 60 253 5.0 10.0 0.00 0.00 0.00 82 1017.0
20260509010423 61 279 5.0 11.0 0.00 0.00 0.00 81 1017.1
20260509005437 61 267 2.0 12.0 0.00 0.00 0.00 82 1017.0
20260509004414 61 277 3.0 8.0 0.00 0.00 0.00 82 1017.1
20260509003448 61 237 4.0 9.0 0.00 0.00 0.00 83 1017.2
20260509002420 61 284 2.0 11.0 0.00 0.00 0.00 84 1017.3
20260509001413 61 284 5.0 12.0 0.00 0.00 0.00 84 1017.3
20260509000452 61 283 4.0 10.0 0.00 0.00 0.00 84 1017.6
20260508235424 61 312 6.0 12.0 0.00 0.00 0.00 83 1017.7
20260508234416 62 313 4.0 11.0 0.00 0.00 0.00 85 1017.8
20260508233429 62 284 4.0 14.0 0.00 0.00 0.00 83 1018.0
20260508232428 62 280 4.0 12.0 0.00 0.00 0.00 83 1017.9
20260508231441 63 308 4.0 11.0 0.00 0.00 0.00 83 1018.0
20260508230433 63 300 2.0 9.0 0.00 0.00 0.00 85 1018.1
20260508225424 62 275 4.0 11.0 0.00 0.00 0.00 86 1018.3
20260508224423 62 258 6.0 12.0 0.00 0.00 0.00 83 1018.4
20260508223438 63 311 5.0 11.0 0.00 0.00 0.00 83 1018.5
20260508222451 62 278 6.0 12.0 0.00 0.00 0.00 84 1018.5
20260508221425 63 276 4.0 10.0 0.00 0.00 0.00 83 1018.7
20260508220423 63 312 5.0 12.0 0.00 0.00 0.00 83 1018.8
20260508215416 63 316 4.0 10.0 0.00 0.00 0.00 82 1018.9